Skip Page Navigation
NASA JPL Caltech
NASA Logo - Jet Propulsion Laboratory + View the NASA Portal
+ Center for Near-Earth Object Studies
JPL Home Earth Solar System Stars & Galaxies Technology
JPL Solar System Dynamics
BODIES ORBITS EPHEMERIDES TOOLS PHYSICAL DATA DISCOVERY FAQ SITE MAP
JPL Small-Body Database Browser
Search: [ help ]  
2826 Ahti (1939 UJ)
Classification: Outer Main-belt Asteroid          SPK-ID: 2002826
Ephemeris | Orbit Diagram | Orbital Elements | Mission Design | Physical Parameters | Discovery Circumstances | Close-Approach Data ]

[ show orbit diagram ]
Orbital Elements at Epoch 2459000.5 (2020-May-31.0) TDB
Reference: JPL 40 (heliocentric ecliptic J2000)
 Element Value Uncertainty (1-sigma)   Units 
e .04924550598776522 4.6434e-08  
a 3.220598941073352 1.8578e-08 au
q 3.061998916636533 1.4913e-07 au
i 15.44948659323526 4.8673e-06 deg
node 33.60508191611193 1.4364e-05 deg
peri 147.6404288833954 3.8622e-05 deg
M 175.7103929251266 3.6708e-05 deg
tp 2457970.117806778823
(2017-Aug-04.61780678)
0.00021295 TDB
period 2111.073701358614
5.78
1.8266e-05
5.001e-08
d
yr
n .1705293376390964 1.4755e-09 deg/d
Q 3.37919896551017 1.9492e-08 au
  Orbit Determination Parameters
   # obs. used (total)      2723  
   data-arc span      29615 days (81.08 yr)  
   first obs. used      1939-10-18  
   last obs. used      2020-11-16  
   planetary ephem.      DE431  
   SB-pert. ephem.      SB431-N16  
   condition code      0  
   norm. resid. RMS      .41719  
   source      ORB  
   producer      Otto Matic  
   solution date      2020-Dec-18 02:08:38  

Additional Information
 Earth MOID = 2.07025 au 
 Jupiter MOID = 1.59506 au 
 T_jup = 3.130 
[ show covariance matrix ]

Ephemeris | Orbit Diagram | Orbital Elements | Mission Design | Physical Parameters | Discovery Circumstances | Close-Approach Data ]

Physical Parameter Table
Parameter Symbol Value Units Sigma Reference Notes
absolute magnitude H 11.0   n/a MPO435724  
diameter diameter 39.975 km 0.157 urn:nasa:pds:neowise_diameters_albedos::2.0[mainbelt] (http://adsabs.harvard.edu/abs/2014ApJ...791..121M)  
rotation period rot_per 24. h n/a LCDB (Rev. 2020-October); Warner et al., 2009 lower-limit; Result based on fragmentary lightcurve(s), may be completely wrong.
Published Reference List:
[Behrend, R. (2006) Observatoire de Geneve web site, http://obswww.unige.ch/~behrend/page_cou.html]
geometric albedo albedo 0.023   0.004 urn:nasa:pds:neowise_diameters_albedos::2.0[mainbelt] (http://adsabs.harvard.edu/abs/2012ApJ...759L...8M)  

2826 Ahti (1939 UJ)          Discovered 1939-Oct-18 by Vaisala, Y. at Turku
Reference: DISCOVERY.DBLast Updated: 2003-08-29

[ show close-approach data ]
Alternate Designations
 1939 UJ = 1942 FH = 1950 TG3 = 1968 UT2 = 1979 RG = 1980 VK1 
Ephemeris | Orbit Diagram | Orbital Elements | Mission Design | Physical Parameters | Discovery Circumstances | Close-Approach Data ]
ABOUT SSD CREDITS/AWARDS PRIVACY/COPYRIGHT GLOSSARY LINKS
FirstGov 2021-Jan-20 15:02 UT
(server date/time)  
NASA Home Page
Site Manager:   Ryan S. Park
Webmaster  Alan B. Chamberlin